Dewpoint
71 72 71 72 72 72 72 73 73 73 73 73 73 73 74 74 75 75 76 76 76 76 76 76 76 76 76 76 77 77 77 75 75 74 75 75 74 73 73 73 73 74
72 72 73 72 72 73 73 73 73 73 73 73 73 73 74 75 75 75 75 76 76 76 76 76 76 76 76 76 77 77 76 76 75 75 74 75 74 74 74 74 73 74
72 72 72 71 71 72 71 72 73 73 73 73 73 73 74 75 74 75 76 75 75 75 76 76 76 76 76 76 77 77 76 76 76 75 76 75 74 75 75 74 74 74
72 72 72 72 72 72 72 73 73 73 73 73 73 73 73 73 75 75 75 76 76 75 75 75 76 75 76 76 77 77 76 76 76 76 76 76 76 75 75 75 75 75
71 72 73 73 72 73 73 73 72 73 73 72 72 74 74 74 74 74 75 75 76 75 75 75 75 75 76 76 77 76 76 76 76 76 76 76 76 76 75 75 75 74
71 72 73 73 73 72 72 72 73 73 73 72 73 74 74 74 74 74 74 74 74 74 74 75 75 75 76 76 76 76 76 76 75 76 76 76 75 76 75 76 75 75
71 71 71 73 73 72 72 72 73 74 73 73 73 73 74 74 74 74 74 74 74 74 74 75 75 75 76 76 76 76 76 76 76 75 75 75 76 76 75 76 77 76
71 71 71 72 72 72 72 72 72 73 74 74 73 73 74 73 74 74 74 74 74 74 75 74 75 76 75 75 75 75 75 75 75 76 75 75 75 75 75 75 76 76
71 71 72 72 72 72 72 72 72 72 73 73 73 73 74 74 73 73 74 74 74 74 74 74 75 75 75 75 75 75 75 75 75 76 75 75 75 75 75 75 75 75
72 72 71 71 71 71 71 71 72 72 73 72 72 72 73 74 74 73 73 73 74 74 74 74 74 75 75 75 75 75 75 75 75 75 75 75 75 75 75 75 75 75
71 72 71 71 71 71 71 71 71 71 72 72 72 71 72 72 73 73 73 73 72 73 74 74 74 74 74 74 75 75 75 75 75 75 75 75 75 75 75 75 75 75
72 72 71 71 71 71 71 71 71 71 70 71 71 71 71 71 71 71 72 72 72 73 73 74 74 74 74 74 74 74 74 74 75 75 74 74 74 74 74 75 74 75
72 72 72 72 72 72 71 71 71 71 70 70 71 71 70 70 70 71 72 72 72 72 72 73 73 73 74 74 74 74 74 74 74 74 74 74 74 73 73 73 73 74
72 73 73 73 72 72 72 71 71 71 71 71 71 70 70 70 69 69 70 71 71 71 72 72 73 73 73 73 73 73 73 73 73 73 73 73 73 73 73 72 72 72
71 72 72 72 71 70 71 71 71 72 72 71 71 70 69 69 69 69 69 70 70 71 71 71 71 71 72 72 72 72 72 72 72 72 72 72 72 72 72 72 72 72
71 72 71 71 71 70 70 71 71 72 71 72 72 71 70 71 71 70 69 69 69 70 70 70 71 71 72 69 70 72 72 71 71 72 72 72 72 72 71 71 71 71
71 71 71 70 70 70 70 70 71 72 72 72 71 71 72 72 71 70 68 68 68 68 68 68 69 69 68 65 65 67 71 72 71 71 71 72 71 72 72 71 71 72
72 71 71 71 71 71 71 71 71 71 71 73 71 70 71 70 71 71 71 70 69 67 67 67 68 68 64 64 64 64 67 71 71 71 70 71 71 71 71 71 71 70
70 71 71 71 71 71 71 71 71 71 71 72 72 72 72 71 71 71 71 71 70 70 69 68 67 66 63 62 62 62 63 67 70 71 70 70 70 70 70 70 71 71
69 69 70 70 71 71 71 71 71 71 71 72 72 72 71 71 71 71 70 71 71 71 71 70 70 68 63 62 60 60 61 63 68 69 70 70 70 70 69 70 70 70
65 66 67 68 70 70 70 70 71 70 70 71 71 71 71 71 71 71 71 71 71 70 70 69 69 66 64 63 60 58 59 62 66 67 68 69 70 70 71 70 70 70
64 64 64 65 66 67 68 69 70 70 70 71 71 71 71 72 72 72 71 71 72 71 71 71 71 65 64 63 61 60 59 64 66 67 68 68 68 69 70 71 71 71
62 62 63 63 64 65 65 67 68 69 70 71 70 70 71 71 71 72 72 72 72 72 72 72 72 68 61 59 58 58 61 66 67 67 67 67 67 68 69 70 71 71
62 61 61 62 63 63 64 65 67 68 70 72 70 70 71 71 72 72 73 73 73 72 71 71 72 65 58 58 57 57 61 66 67 67 67 67 67 68 69 70 70 70
62 61 61 61 62 63 64 65 66 67 69 71 71 70 70 71 70 69 69 69 70 70 70 71 71 66 58 57 57 56 63 68 68 67 67 67 67 68 68 68 69 69
61 62 61 62 62 62 63 64 67 69 69 70 70 70 69 70 70 68 67 68 69 70 70 70 69 67 64 57 55 56 59 68 69 69 69 69 69 70 70 70 70 70